Tracking 29090 objects as of 15-Jul-2024
HD Live streaming from Space Station
objects crossing your sky now

USA 274 DEB

Track USA 274 DEB now!
10-day predictions
USA 274 DEB is classified as:


NORAD ID: 42065
Int'l Code: 2017-011B
Perigee: 1,034.2 km
Apogee: 1,191.8 km
Inclination: 63.4 °
Period: 107.4 minutes
Semi major axis: 7483 km
RCS: Unknown
Launch date: March 1, 2017
Source: United States (US)
Launch site: AIR FORCE WESTERN TEST RANGE (AFWTR)

Note: This is SATELLITE DEBRIS
Your satellite tracking list
Your tracking list is empty




NASA's NSSDC Master Catalog

Two Line Element Set (TLE):
1 42065U 17011B   24192.92979675 0.00000020  00000-0  35002-4 0    08
2 42065  63.4394 150.4355 0105271   1.8333 358.1667 13.40917675    04
Source of the keplerian elements: McCants